Weather in Medellin

Colombia     6°14′36″N   75°34′45″W
temp.,
°C
wind,
m/s
gust,
m/s
humid.,
%
clouds,
%
prec.,
mm/h
press.,
hPa
HPBL,
m
14 june, mon
mon1401:00+13wsw11100100 10.4 101748
04:00+13ne1199100 3.0 101753
07:00+13ene1199100 4.8 1019104
10:00+17nne0179100 0.4 1017546
13:00+19e017198 1.5 1014820
16:00+17ne1287100 2.5 1013537
19:00+13e1298100 4.8 101738
22:00+12ese1199100 0.3 101918
15 june, tue
tue1501:00+12e0099100 0.6 101818
04:00+13ne1199100 0.1 101721
07:00+13ene1199100 0.6 101972
10:00+14e119689 1.1 1019214
13:00+19ese117864 2.9 1015982
16:00+17ene1292100 3.5 1014442
19:00+13ene2299100 7.2 101742
22:00+13ene119897 2.2 101842
16 june, wed
wed1601:00+12ene119966 2.8 101739
04:00+12ene119997 1.1 101636
07:00+13e0099100 2.3 101727
10:00+15e129436 0.9 1017328
13:00+17e1289100 3.0 1014442
16:00+17ene129343 4.4 1012369
19:00+14e2398100 8.8 101686
22:00+13ese1299100 2.4 101881
17 june, thu
thu1701:00+12w119874 3.0 101619
04:00+11ese009889 0.0 101611
07:00+13ene129764 0.0 101769
10:00+20e145446 0.1 10151432
13:00+20e025792 0.6 10121353
16:00+19ne137763 1.3 1011341
19:00+13ene239899 2.3 101658
22:00+12e2299100 0.1 101855
18 june, fri
fri1801:00+11e229839 0.1 101837
04:00+10e119792 0.0 101726
07:00+12e1295100 0.0 101875
10:00+21e145320 0.0 10151425
13:00+23e254566 0.2 10121939
16:00+22e345342 0.3 10111344
19:00+13ene229844 3.2 101660
22:00+12ene229957 0.1 101853